Location: Arbon
(43.0005°N, 0.7472°E)
Time: 02:06:01
(UTC+00:00)

Cosmos 2227 - Pass Details

Date: 07 August 2020
Orbit: 835 x 861 km, 71.0° (Epoch: 19 September)

Event Time Altitude Azimuth Distance (km) Brightness Sun altitude
Exits shadow 03:24:53 18° 202° (SSW) 2,004 5.6 -14.8°
Maximum altitude 03:29:20 88° 114° (ESE) 867 4.2 -14.1°
Drops below altitude 10° 03:35:07 10° 25° (NNE) 2,507 7.7 -13.3°
Sets 03:37:35 0° 26° (NNE) 3,448 8.6 -13.0°
